Location: Hötzum
(52.2222°N, 10.6155°E)
Time: 07:10:30
(UTC+00:00)

Daily predictions for brighter satellites

Satellite Brightness Start Highest point End
(mag) Time Altitude Azimuth Time Altitude Azimuth Time Altitude Azimuth
Cosmos 1777 Rocket 4.1 20:02:50 10° S 20:07:56 58° ESE 20:13:03 10° NNE
BREEZE-M DEB (TANK) 3.9 20:07:23 10° SSE 20:09:04 14° SE 20:11:35 10° E
NOSS 3-3 (C) 4.1 20:04:58 10° SW 20:10:26 78° NW 20:17:03 10° NE
Cosmos 44 4.3 20:08:29 10° SSE 20:11:46 21° ESE 20:15:06 10° ENE
Lacrosse 5 rocket 2.5 20:10:15 10° W 20:13:58 42° N 20:17:43 10° ENE
Okean 1 Rocket 3.3 20:10:06 10° N 20:14:26 57° ENE 20:18:42 10° SSE
Cosmos 2242 Rocket 4.1 20:11:17 10° SSW 20:15:37 64° WNW 20:20:00 10° N
Helios 1A 2.8 20:12:57 10° NNE 20:16:55 68° ESE 20:20:50 10° S
Helios 1B rocket 3.4 20:14:28 10° S 20:17:57 40° W 20:21:27 10° NNW
Cosmos 2221 Rocket 3.9 20:17:14 10° SSE 20:21:35 50° E 20:25:59 10° NNE
Cosmos 2227 Rocket 4.5 20:18:27 10° NNW 20:22:02 17° NNE 20:25:36 10° ENE
Gbstr 26 Del rocket 3.5 20:18:58 10° W 20:23:45 86° S 20:29:42 10° E
NOSS 3-4 (A) 4.2 20:18:11 10° NW 20:24:46 61° SW 20:32:31 10° SSE
NOSS 3-4 (C) 4.2 20:18:12 10° NW 20:24:49 61° SW 20:32:33 10° SSE
Terra 2.6 20:21:20 10° S 20:25:55 50° W 20:30:31 10° NNW
Cosmos 1455 Rocket 3.8 20:21:56 10° N 20:25:58 37° ENE 20:30:00 10° SE
SPOT 3 Rocket 3.6 20:24:16 10° SSE 20:29:28 80° ENE 20:34:42 10° NNW
Sich 1 Rocket 3.7 20:27:56 10° N 20:32:32 88° W 20:37:05 10° S
Spot 2 Rocket 3.9 20:28:43 10° S 20:33:46 65° WSW 20:38:50 10° NNW
Cosmos 1818 4.0 20:32:13 10° NW 20:37:34 57° SW 20:42:52 10° SSE
IRS-1C Rocket 4.2 20:33:13 10° SSE 20:38:29 78° WSW 20:43:47 10° NNW
Cosmos 1833 4.3 20:33:23 10° NNW 20:39:06 77° WSW 20:44:42 10° SSE
ATLAS 5 CENTAUR R/B 4.2 20:36:48 10° NW 20:39:09 17° N 20:41:46 10° NNE
Cosmos 1674 Rocket 3.7 20:35:27 10° SSW 20:39:52 83° W 20:44:21 10° N
Cosmos 1538 Rocket 4.2 20:37:22 10° NNW 20:42:44 70° ENE 20:47:45 12° SE
ERS-1 Rocket 4.5 20:40:52 10° SSW 20:45:20 32° W 20:49:50 10° NNW
IKONOS-2 4.4 20:41:35 10° NNE 20:45:45 80° ESE 20:49:52 10° SSW
USA 245 4.2 20:42:06 10° S 20:46:01 42° WSW 20:49:14 10° NNW
Cosmos 2297 3.8 20:44:31 10° SSW 20:50:11 82° WNW 20:55:56 10° NNE
Cosmos 1812 2.1 20:47:44 10° N 20:50:55 88° E 20:53:43 13° S
PSLV R/B 3.2 20:49:19 13° SSE 20:52:06 83° ENE 20:55:14 10° NNW
Okean-O 4.4 20:48:49 10° SSW 20:52:34 28° W 20:56:21 10° NW
Meteor 1-11 4.3 20:48:07 10° S 20:53:56 79° E 20:59:44 10° NNE
Meteor 2-1 Rocket 4.3 20:50:10 10° NNW 20:56:04 87° W 21:01:41 11° S
Cosmos 1092 Rocket 4.5 20:50:29 10° SSE 20:56:21 45° E 21:02:18 10° NNE
ARIANE 5 R/B 4.3 20:53:36 10° ESE 20:57:01 22° ENE 21:00:25 10° N
ATLAS 2AS CENTAUR R/B 4.3 20:50:50 10° NW 20:57:01 34° N 21:03:05 10° ENE
BlueWalker 3 1.8 20:55:10 10° WNW 20:58:51 84° N 21:02:32 10° E
Okean O Rocket 4.0 20:56:18 10° SW 20:59:28 19° W 21:02:39 10° NW
Cosmos 1025 Rocket 3.1 20:56:03 10° SSW 21:00:23 80° W 21:04:48 10° N
Cosmos 990 Rocket 3.9 20:55:21 10° SSW 21:00:30 76° ESE 21:05:44 10° NNE
Cosmos 2263 Rocket 4.5 21:06:01 10° NNW 21:09:51 18° NNE 21:13:40 10° ENE
Aureole 1 Rocket 4.5 21:04:07 10° S 21:10:33 55° ESE 21:17:49 10° NNE
RESURS DK-1 3.2 21:10:09 10° NNW 21:13:57 40° NE 21:17:10 13° ESE
Cosmos 1544 Rocket 4.3 21:12:21 10° N 21:16:29 40° ENE 21:19:31 17° SE
Cosmos 372 Rocket 4.2 21:14:58 11° S 21:19:37 49° ESE 21:24:30 10° NNE
USA 215 3.6 21:14:32 10° E 21:21:02 68° NNE 21:27:32 10° WNW
DNEPR-1 R/B 3.5 21:17:15 10° NW 21:21:29 70° SW 21:24:33 19° SSE
Cosmos 2369 Rocket 3.1 21:20:02 10° SW 21:25:36 52° NW 21:31:09 10° NNE
ASTEX 1 4.3 21:21:14 10° N 21:25:53 46° WNW 21:30:31 10° SSW
Cosmos 1400 Rocket 3.7 21:22:28 10° N 21:26:01 34° ENE 21:28:20 18° SE
Meteor 1-27 4.3 21:23:28 10° NNW 21:29:18 85° ENE 21:33:45 17° SSE
Cosmos 1782 4.4 21:30:05 10° NNE 21:32:59 21° ENE 21:35:07 14° ESE
Cosmos 2297 Rocket 2.7 21:29:16 10° NNW 21:34:49 53° NE 21:39:27 15° SE
COBE Rocket 4.0 21:31:07 10° N 21:35:48 72° WNW 21:40:22 10° SSW
ISS -3.5 21:32:48 10° W 21:36:03 47° SSW 21:37:42 24° SE
Ariane Rocket 4.3 21:33:25 10° SSW 21:37:58 33° W 21:42:32 10° NNW
Cosmos 1937 Rocket 3.8 21:34:18 17° S 21:38:02 47° ESE 21:42:57 10° NE
Cosmos 2098 Rocket 2.3 21:35:31 10° N 21:38:41 87° E 21:40:46 23° S
Cosmos 1680 Rocket 3.7 21:33:26 10° NNW 21:38:43 69° ENE 21:42:31 19° SE
CZ-4C R/B 1.9 21:42:51 10° SW 21:47:21 86° NW 21:53:13 10° NE
ALOS 2 3.7 21:44:36 16° ESE 21:47:32 34° ENE 21:51:30 10° N
Cosmos 923 Rocket 4.0 21:44:52 10° NNW 21:50:04 78° WSW 21:53:32 21° SSE
Lacrosse 5 rocket 2.1 21:48:03 10° WNW 21:51:52 48° NNE 21:55:42 10° E
Cosmos 44 3.4 21:48:06 10° SW 21:52:24 67° NW 21:56:53 10° NE
Cosmos 1697 Rocket 4.3 21:50:21 15° SE 21:52:27 18° E 21:56:09 10° ENE
Cosmos 1975 Rocket 3.3 21:53:27 14° SSW 21:57:06 65° WNW 22:01:24 10° N
MetOp-A 3.4 21:55:24 25° SE 21:57:27 62° ENE 22:01:13 10° N
Cosmos 2228 3.3 21:56:22 10° NNW 22:00:32 60° W 22:03:10 21° S
Cosmos 2227 Rocket 3.0 22:02:03 10° NNW 22:07:33 47° NE 22:12:21 13° ESE
Cosmos 1867 3.5 22:04:31 10° SW 22:09:59 83° SE 22:15:29 10° NE
Gbstr 26 Del rocket 3.8 22:05:05 10° W 22:10:15 57° SSW 22:15:20 16° SE
Cosmos 494 Rocket 4.0 22:06:08 10° NNW 22:11:23 76° ENE 22:14:40 23° SSE
BREEZE M DEB (TANK) 3.9 22:08:42 10° SW 22:10:09 20° SW 22:10:09 20° SW
BREEZE-M DEB (TANK) 2.8 22:09:55 10° W 22:17:20 63° S 22:19:47 14° ESE
Cosmos 1048 Rocket 4.5 22:15:05 10° NNW 22:20:24 57° ENE 22:24:05 20° SE
CZ-2C R/B 3.7 22:16:02 10° NNE 22:20:48 78° ESE 22:23:39 24° S
Cosmos 1898 Rocket 3.9 22:16:38 10° SW 22:21:48 64° WNW 22:27:03 10° NNE
ATLAS 5 CENTAUR R/B 4.0 22:20:23 10° NNW 22:23:16 20° NNE 22:26:34 10° ENE
Cosmos 2266 Rocket 4.2 22:19:20 22° SSE 22:23:28 61° E 22:29:47 10° NNE
Spot 4 3.8 22:21:20 26° SSE 22:24:07 89° ENE 22:28:57 10° NNW
Landsat 5 3.5 22:24:44 10° NNE 22:28:27 51° E 22:29:50 32° SSE
Cosmos 1553 Rocket 4.4 22:25:24 10° NNW 22:31:30 56° W 22:35:55 20° SSW
Cosmos 2315 Rocket 4.2 22:25:46 10° N 22:32:09 65° ENE 22:36:19 23° SSE
ARIANE 5 R/B 2.9 22:30:39 26° S 22:33:00 58° WSW 22:37:23 10° NNW
BlueWalker 3 2.3 22:32:58 10° W 22:36:23 38° SSW 22:36:56 35° S
Cosmos 1315 Rocket 3.9 22:33:21 10° N 22:36:52 33° ENE 22:38:48 20° ESE
SL-08 ROCKET BODY 4.4 22:36:29 21° SSW 22:40:37 81° W 22:46:32 10° N
CZ-4C R/B 3.8 22:40:56 10° N 22:44:27 51° WNW 22:46:39 22° SW
Cosmos 1933 3.6 22:42:16 10° N 22:46:06 56° ENE 22:47:44 31° SE
ATLAS 2AS CENTAUR R/B 3.1 22:42:20 10° NW 22:49:08 63° NE 22:55:48 10° ESE
SOZ 4.0 22:48:36 10° W 22:54:17 - ESE 22:50:38 73° SSW
Cosmos 1536 Rocket 3.7 22:48:20 25° SSW 22:50:47 68° WNW 22:55:12 10° N
RESURS DK-1 3.5 22:47:52 10° NW 22:51:18 28° WSW 22:52:29 24° SW
Cosmos 1656 3.7 22:47:10 15° SW 22:51:51 79° WNW 22:57:24 10° NNE
S3M 4.1 22:46:13 10° NNW 22:52:32 75° W 22:56:23 25° S
USA 290 4.3 22:51:46 10° N 22:54:30 24° NE 22:56:39 13° ESE
Cosmos 2263 Rocket 2.8 22:49:31 10° NNW 22:55:05 54° NE 22:59:46 14° SE
Cosmos 1606 Rocket 3.6 22:52:29 10° NNW 22:56:51 69° W 22:58:50 31° S
Cosmos 1400 Rocket 4.4 22:58:20 10° NW 23:01:25 23° W 23:03:02 18° SW
Cosmos 2058 3.1 23:01:15 28° SW 23:03:10 59° WNW 23:07:04 10° N
USA 215 3.2 22:58:07 13° SE 23:04:05 69° SSW 23:10:39 10° WNW
Cosmos 1782 3.6 23:04:44 10° NNW 23:08:09 36° W 23:09:26 27° SW
Cosmos 1602 3.1 23:07:46 49° S 23:08:31 80° ESE 23:11:45 10° NNE
ISS -1.2 23:10:21 10° WSW 23:10:32 11° WSW 23:10:32 11° WSW
Cosmos 1655 Rocket 4.1 23:09:38 25° S 23:13:33 80° E 23:19:57 10° NNE
Cosmos 2297 Rocket 3.1 23:13:37 10° NW 23:18:39 34° WSW 23:21:13 23° SSW
Cosmos 1862 3.2 23:18:17 36° SSW 23:19:39 69° WNW 23:23:18 10° N
Cosmos 1726 Rocket 4.0 23:15:31 10° NNW 23:20:02 57° W 23:22:11 29° SSW
Cosmos 2219 3.5 23:14:31 10° NNW 23:20:12 66° NE 23:24:45 16° SE
Cosmos 2058 Rocket 3.1 23:17:24 10° N 23:21:54 84° E 23:23:59 31° SSE
PSLV R/B 3.8 23:17:19 10° NNE 23:22:00 75° WNW 23:24:32 27° SSW
Dummy Sat-02 4.5 23:22:12 40° SSW 23:23:24 82° W 23:27:03 10° N
ALOS 2 3.7 23:22:00 24° SW 23:23:51 33° W 23:27:52 10° NNW
Lacrosse 5 rocket 1.1 23:25:29 10° WNW 23:29:23 63° SW 23:31:05 31° SE
Cosmos 1980 Rocket 2.7 23:28:23 26° SSE 23:31:02 44° ESE 23:36:20 10° NE
Cosmos 1356 Rocket 3.7 23:29:51 10° NNW 23:33:48 52° W 23:35:17 33° SSW
Cosmos 1697 Rocket 2.7 23:32:03 24° SSW 23:35:37 89° ESE 23:41:20 10° NNE
CZ-4C R/B 4.0 23:31:49 10° W 23:36:27 34° NNW 23:42:17 10° NE
Spot 1 4.5 23:34:46 10° NNE 23:39:34 67° WNW 23:42:05 26° SW
CZ-2C R/B 3.1 23:36:52 18° SE 23:40:56 61° ENE 23:46:29 10° N
Cosmos 1892 Rocket 3.8 23:39:40 29° SSW 23:41:43 62° WNW 23:46:00 10° N
PSLV R/B 3.8 23:38:04 10° NNE 23:42:04 82° WNW 23:43:44 34° SSW
Cosmos 1441 Rocket 3.1 23:44:49 37° SW 23:45:59 63° WNW 23:49:26 10° N
GEOS 3 Rocket 3.6 23:42:29 10° NE 23:47:47 90° NW 23:51:46 18° SW
Cosmos 1758 Rocket 4.2 23:47:54 27° SSE 23:50:00 48° E 23:54:17 10° NNE
Meteor 2-3 Rocket 3.8 23:46:44 25° SSW 23:50:14 77° WNW 23:56:01 10° N
Cosmos 1844 Rocket 4.1 23:45:11 10° NNW 23:50:24 37° NE 23:55:35 10° ESE
Cosmos 1626 Rocket 3.8 23:49:13 30° SSE 23:51:14 61° E 23:55:36 10° NNE
Cosmos 2227 Rocket 2.9 23:46:17 10° NW 23:51:32 40° WSW 23:54:06 26° SSW
CENTAUR R/B 4.3 23:50:08 10° SE 23:52:48 13° ESE 23:55:41 10° ENE
Geosat 4.1 23:49:42 10° NE 23:54:43 65° ESE 23:57:20 28° SSW
